User: anonymous   Login
Location: Peebles
(55.6412°N, 3.1714°W)
Time: 23:08:47
(UTC+00:00)
Language:

Cosmos 1898 Rocket - Orbit

View from above orbital plane
View from above orbital plane
View from above satellite
View from above satellite

Ground track
Ground track

The orbit data is extracted from the following two-line orbital elements,

1 18586U 87098B   21331.60878735  .00000033  00000-0  19976-4 0  9996
2 18586  74.0050 183.6691 0021697 218.5971 141.3633 14.36980743780672
Epoch (UTC): 27 November 2021 14:36:39
Eccentricity: 0.0021697
inclination: 74.0050°
perigee height: 753 km
apogee height: 784 km
right ascension of ascending node: 183.6691°
argument of perigee: 218.5971°
revolutions per day: 14.36980743
mean anomaly at epoch: 141.3633°
orbit number at epoch: 78067

The dashed part of the orbit path shows where the satellite is in the earth's shadow,  

DLR